User: anonymous   Login
Location: Whispering Pines Observatory
(39.4020°N, 104.7430°W)
Time: 01:11:46
(UTC-07:00)
Language:

MOS 1 Rocket - Orbit

View from above orbital plane
View from above orbital plane
View from above satellite
View from above satellite

Ground track
Ground track

The orbit data is extracted from the following two-line orbital elements,

1 17528U 87018B   16338.06825588  .00000109  00000-0  33359-4 0  9997
2 17528  97.4235 311.6925 0152291 191.5091 260.1415 14.50716706571445
Epoch (UTC): 03 December 2016 01:38:17
Eccentricity: 0.0152291
inclination: 97.4235°
perigee height: 615 km
apogee height: 831 km
right ascension of ascending node: 311.6925°
argument of perigee: 191.5091°
revolutions per day: 14.50716706
mean anomaly at epoch: 260.1415°
orbit number at epoch: 57144

The dashed part of the orbit path shows where the satellite is in the earth's shadow,  

DLR